Weather Roundup
Issued by NWS Springfield, MO

Home | Current Version | Previous Version | Text Only | Print | Product List | Glossary On
Versions: 1 2 3 4 5 6 7 8 9 10 11 12 13 14 15 16 17 18 19 20 21 22 23 24 25 26 27 28 29 30 31 32 33 34 35 36 37 38 39 40 41 42 43 44 45 46 47 48 49 50
000
NZUS99 KSGF 251759
HRRSGF

HOURLY WEATHER
NATIONAL WEATHER SERVICE SPRINGFIELD MO
1200 PM CST TUE NOV 25 2014

......SGF CWA......

CITY           SKY/WX    TMP DP  RH WIND       PRES   REMARKS
SPRINGFIELD    SUNNY     38  16  40 VRB5      30.21F WCI  34
6HR MIN TEMP:  24; 6HR MAX TEMP:  39;

JOPLIN         SUNNY     41  14  33 SW7       30.23F
6HR MIN TEMP:  23; 6HR MAX TEMP:  41;

WEST PLAINS    SUNNY     40  19  43 VRB5      30.21F
6HR MIN TEMP:  24; 6HR MAX TEMP:  41;

ROLLA          SUNNY     34  19  54 VRB5      30.18S WCI  30
6HR MIN TEMP:  24; 6HR MAX TEMP:  35;

OSAGE BEACH    SUNNY     37  16  41 W5        30.21F WCI  34
BRANSON        SUNNY     41  16  36 N5        30.23F

......SURROUNDING SGF CWA......

CITY           SKY/WX    TMP DP  RH WIND       PRES   REMARKS
CHANUTE        SUNNY     40   8  26 CALM      30.22F
PARSONS        SUNNY     43  13  29 VRB5      30.24F
COFFEYVILLE    SUNNY     42  14  32 VRB3      30.24F
EMPORIA        SUNNY     42  19  39 SW10      30.17F
SILOAM SPRINGS SUNNY     43  16  33 CALM      30.25F
HARRISON AR    SUNNY     43  16  33 VRB3      30.22F
NEAR YELLVILLE SUNNY     43  18  36 SW3       30.24F

......KANSAS AND MISSOURI......

CITY           SKY/WX    TMP DP  RH WIND       PRES   REMARKS
KANSAS CTY INT SUNNY     35  11  36 SW7       30.17F WCI  29
DOWNTOWN KC    SUNNY     37   9  31 SW8       30.19F WCI  31
COLUMBIA       SUNNY     35  19  52 VRB5      30.19F WCI  31
SEDALIA        SUNNY     36  17  46 W9        30.21F WCI  29
ST JOSEPH      SUNNY     34  13  41 S7        30.17F WCI  28
ST LOUIS       MOSUNNY   37  22  54 SW5       30.21S WCI  33
SPIRIT OF STL  SUNNY     36  22  56 W8        30.20F WCI  30
KIRKSVILLE     SUNNY     31  20  63 VRB6      30.17F WCI  25
WICHITA        SUNNY     47  22  37 SW13      30.18F
TOPEKA         SUNNY     40  13  33 CALM      30.18F
OLATHE         SUNNY     36  11  35 SW9       30.18F WCI  29

......TENNESSEE......

CITY           SKY/WX    TMP DP  RH WIND       PRES   REMARKS
MEMPHIS        PTSUNNY   49  23  36 W7        30.22F
NASHVILLE      PTSUNNY   51  28  41 N8        30.15F

......ARKANSAS.......

CITY           SKY/WX    TMP DP  RH WIND       PRES   REMARKS
FAYETTEVILLE   SUNNY     43  14  31 VRB3      30.24F
FT SMITH       SUNNY     49  14  24 SW6       30.27F
LITTLE ROCK    MOSUNNY   53  15  22 NW10      30.25F

......OKLAHOMA.......

CITY           SKY/WX    TMP DP  RH WIND       PRES   REMARKS
TULSA          MOSUNNY   43  13  29 SE6       30.26F
PONCA CITY     SUNNY     47  19  33 VRB5      30.23F
MCALESTER      MOSUNNY   50  20  30 W5        30.28F
OKLAHOMA CITY  SUNNY     51  22  31 SW12      30.25F

......IOWA............

CITY           SKY/WX    TMP DP  RH WIND       PRES   REMARKS
DES MOINES     MOSUNNY   31  11  43 VRB6      30.13F WCI  25

......ILLINOIS........

CITY           SKY/WX    TMP DP  RH WIND       PRES   REMARKS
QUINCY         SUNNY     30  20  66 W7        30.16F WCI  23
CHICAGO        MOSUNNY   25  17  72 W12       30.08S WCI  14



USA.gov is the U.S. government's official web portal to all federal, state and local government web resources and services.